Location: Ladysmith
(45.4630°N, 91.1040°W)
Time: 00:29:37
(UTC-05:00)

Amateur Radio Satellites - All Passes

Search period start: 30 July 2016 23:59
Search period end: 31 July 2016 23:59
Location: Ladysmith, 45.4630°N, 91.1040°W

Satellite Date Start Highest point End Downlink Frequencies (MHz)
Time Altitude Azimuth
AISAT 31 Jul 00:04:35 00:08:59 78° 258° (WSW) 00:13:25 437.250
QB50P2 31 Jul 00:07:40 00:11:36 33° 97° (E) 00:15:29 145.880/145.840
POLYITAN 1 31 Jul 00:10:18 00:14:15 34° 97° (E) 00:18:09 437.675
Cosmos 2504 31 Jul 00:13:48 00:18:43 18° 285° (WNW) 00:23:27 435.465 / 435.565
TIGRISAT 31 Jul 00:15:19 00:19:38 40° 291° (WNW) 00:23:51 435.000
SPROUT 31 Jul 00:20:36 00:24:52 71° 73° (ENE) 00:29:10 437.525
UNISAT 6 31 Jul 00:33:29 00:37:19 26° 295° (WNW) 00:41:04 437.425
Cosmos 2491 31 Jul 00:42:54 00:46:38 13° 310° (NW) 00:50:24 435.465 / 435.565
CUBEBUG 1 31 Jul 00:46:43 00:50:21 26° 265° (W) 00:54:02 437.445
BUGSAT 1 31 Jul 00:48:46 00:52:41 35° 97° (E) 00:56:35 437.445
NANOSAT C BR1 31 Jul 00:49:14 00:53:33 84° 102° (ESE) 00:57:49 145.865
DUCHIFAT 1 31 Jul 00:51:26 00:55:45 83° 104° (ESE) 00:59:59 145.980
VELOX 1 31 Jul 00:56:39 01:00:15 24° 266° (W) 01:03:53 145.980
ESTCUBE 1 31 Jul 00:59:12 01:01:48 15° 270° (W) 01:04:25 437.505/2401.250
ISS 31 Jul 00:59:42 01:02:46 37° 17° (NNE) 01:05:51 145.825
TISAT 1 31 Jul 01:00:53 01:04:54 47° 71° (ENE) 01:08:59 437.305
Cosmos 2499 31 Jul 01:06:21 01:11:20 18° 57° (ENE) 01:16:06 435.465 / 435.565
ANTELSAT 31 Jul 01:13:17 01:15:13 13° 302° (WNW) 01:17:09 437.575/2403.000
QB50P1 31 Jul 01:14:19 01:18:29 50° 288° (WNW) 01:22:37 145.935-145.965
GONETS M04 31 Jul 01:20:37 01:28:25 33° 67° (ENE) 01:36:11
POPSAT HIP 1 31 Jul 01:21:15 01:25:20 43° 289° (WNW) 01:29:24 437.405
BEESAT 3 31 Jul 01:22:00 01:25:09 22° 41° (NE) 01:28:18 437.485
JAS-2 31 Jul 01:22:32 01:27:50 57° 101° (E) 01:33:37 435.910
PCSat 31 Jul 01:25:28 01:27:29 12° 26° (NNE) 01:29:30 145.827
SWISSCUBE 31 Jul 01:25:29 01:29:12 23° 63° (ENE) 01:32:55 437.505
DX 1 31 Jul 01:27:47 01:30:29 16° 269° (W) 01:33:12 434.975-435.025
UKube-1 31 Jul 01:33:09 01:36:02 17° 268° (W) 01:38:56 .
BEESAT 2 31 Jul 01:36:46 01:39:39 19° 38° (NE) 01:42:32 435.950
AIST 1 31 Jul 01:37:54 01:40:49 18° 274° (W) 01:43:46
QB50P2 31 Jul 01:43:44 01:47:15 25° 294° (WNW) 01:50:45 145.880/145.840
BEESAT 31 Jul 01:45:46 01:49:57 31° 66° (ENE) 01:54:10 436.000
POLYITAN 1 31 Jul 01:46:23 01:49:54 25° 294° (WNW) 01:53:22 437.675
SPROUT 31 Jul 01:59:44 02:01:18 12° 272° (W) 02:02:53 437.525
Oscar 19 31 Jul 02:01:00 02:05:45 35° 97° (E) 02:10:29 437.125/150
ITUPSAT 1 31 Jul 02:11:12 02:15:51 52° 70° (ENE) 02:20:31 437.325
Gurwin Techsat 1B 31 Jul 02:16:11 02:20:23 23° 93° (E) 02:24:34 435.225
BUGSAT 1 31 Jul 02:24:28 02:27:54 24° 294° (WNW) 02:31:19 437.445
NANOSAT C BR1 31 Jul 02:27:12 02:28:37 11° 301° (WNW) 02:30:04 145.865
DUCHIFAT 1 31 Jul 02:29:18 02:30:47 12° 301° (WNW) 02:32:15 145.980
ISS 31 Jul 02:36:07 02:39:17 48° 216° (SW) 02:42:26 145.825
TISAT 1 31 Jul 02:38:02 02:40:49 17° 268° (W) 02:43:38 437.305
Cosmos 2499 31 Jul 02:58:04 03:05:55 84° 80° (E) 03:13:10 435.465 / 435.565
BEESAT 3 31 Jul 02:59:14 03:03:05 49° 240° (WSW) 03:06:53 437.485
SWISSCUBE 31 Jul 03:02:06 03:06:43 46° 261° (W) 03:11:20 437.505
DANDE 31 Jul 03:04:19 03:04:54 10° 91° (E) 03:05:28 436.750
PCSat 31 Jul 03:07:16 03:12:25 42° 49° (NE) 03:17:32 145.827
JAS-2 31 Jul 03:08:36 03:12:39 22° 298° (WNW) 03:16:56 435.910
BEESAT 2 31 Jul 03:13:54 03:17:52 64° 239° (WSW) 03:21:50 435.950
GONETS M04 31 Jul 03:17:09 03:25:46 62° 269° (W) 03:34:25
BEESAT 31 Jul 03:23:24 03:27:42 32° 264° (W) 03:32:00 436.000
MOZHAYETS 4 31 Jul 03:25:41 03:29:59 39° 69° (ENE) 03:34:16
CUSAT 1 31 Jul 03:40:14 03:43:47 67° 100° (E) 03:46:41 437.405
AO-7 31 Jul 03:40:23 03:47:00 25° 92° (E) 03:53:32 29.400- 29.500
Oscar 19 31 Jul 03:40:26 03:45:01 33° 294° (WNW) 03:49:36 437.125/150
ITAMSAT 1 31 Jul 03:44:37 03:49:38 47° 99° (E) 03:54:36 435.822/435.867
ITUPSAT 1 31 Jul 03:50:32 03:53:59 19° 268° (W) 03:57:26 437.325
Gurwin Techsat 1B 31 Jul 03:55:28 04:00:37 51° 290° (WNW) 04:05:45 435.225
KKS-1 31 Jul 03:56:22 04:00:46 75° 75° (ENE) 04:05:15 437.445
AIST 2 31 Jul 04:13:07 04:16:54 32° 45° (NE) 04:20:40 435.215
RS-15 31 Jul 04:18:48 04:21:39 11° 90° (E) 04:24:31 29.354- 29.394
STARS 31 Jul 04:23:08 04:27:31 72° 74° (ENE) 04:31:57 437.465
DANDE 31 Jul 04:42:38 04:47:32 68° 281° (W) 04:51:12 436.750
PCSat 31 Jul 04:50:53 04:55:44 34° 249° (WSW) 05:00:33 145.827
Cosmos 2499 31 Jul 04:52:52 04:57:52 19° 283° (WNW) 05:02:41 435.465 / 435.565
CUBESAT XI-V 31 Jul 04:56:48 05:01:08 42° 70° (ENE) 05:05:28 437.345
MOZHAYETS 4 31 Jul 05:03:30 05:07:16 24° 267° (W) 05:11:02
O/OREOS (USA 219) 31 Jul 05:07:15 05:11:18 31° 57° (ENE) 05:15:21 437.305
HORYU 2 31 Jul 05:09:57 05:13:07 19° 92° (E) 05:16:14 437.375
GONETS M04 31 Jul 05:17:46 05:20:39 12° 290° (WNW) 05:23:33
ITAMSAT 1 31 Jul 05:24:37 05:28:51 26° 297° (WNW) 05:33:02 435.822/435.867
AO-7 31 Jul 05:32:12 05:40:34 78° 292° (WNW) 05:48:52 29.400- 29.500
KKS-1 31 Jul 05:36:11 05:37:53 12° 271° (W) 05:39:35 437.445
BRITE-PL 31 Jul 05:47:13 05:50:23 17° 91° (E) 05:53:40 437.365/2234.400
AIST 2 31 Jul 05:51:38 05:55:22 32° 243° (WSW) 05:59:06 435.215
CUTE-I 31 Jul 05:57:47 05:59:02 11° 86° (E) 06:00:17 437.470
NOAA 15 31 Jul 06:01:43 06:04:56 16° 90° (E) 06:08:08 137.62
STARS 31 Jul 06:02:35 06:04:23 12° 271° (W) 06:06:10 437.465
RS-15 31 Jul 06:19:57 06:30:58 56° 113° (ESE) 06:42:34 29.354- 29.394
GOMX 1 31 Jul 06:26:30 06:30:13 19° 91° (E) 06:34:02 467.674
CUBESAT XI-V 31 Jul 06:35:08 06:38:41 22° 267° (W) 06:42:16 437.345
STRAND 1 31 Jul 06:35:18 06:39:49 32° 65° (ENE) 06:44:21 437.568
HORYU 2 31 Jul 06:45:37 06:49:56 48° 290° (WNW) 06:54:12 437.375
O/OREOS (USA 219) 31 Jul 06:46:40 06:50:40 31° 255° (WSW) 06:54:41 437.305
Cosmos 2491 31 Jul 06:50:37 06:56:37 20° 57° (ENE) 07:02:36 435.465 / 435.565
NOAA 18 31 Jul 07:08:29 07:13:49 46° 99° (E) 07:19:06 137.9125
SO-50 31 Jul 07:10:23 07:14:50 36° 117° (ESE) 07:19:17 436.795
Cubesat XI-IV 31 Jul 07:12:25 07:17:39 51° 100° (E) 07:22:49 437.490
BRITE-PL 31 Jul 07:24:19 07:29:13 68° 286° (WNW) 07:34:29 437.365/2234.400
AO-7 31 Jul 07:26:16 07:32:06 22° 314° (NW) 07:37:55 29.400- 29.500
PRISM 31 Jul 07:30:38 07:32:32 13° 60° (ENE) 07:34:25 437.425
DOVE 4 31 Jul 07:33:59 07:38:52 38° 96° (E) 07:43:48 437.250
CUTE-I 31 Jul 07:34:34 07:39:56 80° 105° (ESE) 07:45:16 437.470
LilacSat-2 31 Jul 07:39:02 07:42:54 72° 283° (WNW) 07:46:42 437.200
NOAA 15 31 Jul 07:40:00 07:45:15 72° 287° (WNW) 07:50:31 137.62
GOMX 1 31 Jul 08:03:32 08:08:37 62° 287° (WNW) 08:13:55 467.674
HO-68 31 Jul 08:06:39 08:12:30 26° 92° (E) 08:18:18 435.675
STRAND 1 31 Jul 08:14:13 08:18:56 36° 263° (W) 08:23:40 437.568
YUBILEINY 31 Jul 08:21:22 08:27:53 24° 78° (ENE) 08:34:27 435.215
AAUSAT CUBESAT 2 31 Jul 08:28:09 08:28:45 10° 88° (E) 08:29:22 437.432
RS-15 31 Jul 08:32:11 08:43:35 56° 319° (NW) 08:55:37 29.354- 29.394
Cosmos 2491 31 Jul 08:46:11 08:54:59 81° 80° (E) 09:03:48 435.465 / 435.565
NOAA 18 31 Jul 08:49:33 08:54:16 29° 298° (WNW) 08:58:56 137.9125
CINEMA 3 31 Jul 08:49:53 08:54:54 62° 100° (E) 08:59:47 145.822/145.860
CANX-2 31 Jul 08:50:36 08:54:45 54° 100° (E) 08:58:52 2200.000
SO-50 31 Jul 08:50:49 08:55:20 37° 315° (NW) 08:59:49 436.795
Cubesat XI-IV 31 Jul 08:53:08 08:57:24 25° 298° (WNW) 09:01:39 437.490
UWE-3 31 Jul 08:55:59 08:58:37 15° 89° (E) 09:01:12 435.000/436.395/437.385
ANTELSAT 31 Jul 09:01:18 09:03:32 13° 59° (ENE) 09:05:47 437.575/2403.000
CUTE 1.7 + AOD 2 31 Jul 09:03:05 09:07:17 65° 102° (ESE) 09:11:26 437.475
PRISM 31 Jul 09:03:17 09:07:19 66° 257° (WSW) 09:11:23 437.425
BRITE-PL 31 Jul 09:06:15 09:06:55 10° 303° (WNW) 09:07:37 437.365/2234.400
Cosmos 2504 31 Jul 09:09:14 09:14:10 16° 74° (ENE) 09:19:02 435.465 / 435.565
DOVE 4 31 Jul 09:11:52 09:16:25 32° 293° (WNW) 09:21:03 437.250
CUTE-I 31 Jul 09:16:02 09:19:20 17° 303° (WNW) 09:22:37 437.470
Oscar 11 31 Jul 09:18:36 09:21:19 16° 90° (E) 09:24:00 145.826/435.025
NOAA 15 31 Jul 09:22:14 09:24:07 12° 306° (NW) 09:26:00 137.62
CUBEBUG 2 31 Jul 09:26:30 09:31:00 44° 98° (E) 09:35:21 437.445
SEEDS 31 Jul 09:33:48 09:37:59 82° 286° (WNW) 09:42:08 437.485
COMPASS 1 31 Jul 09:36:55 09:41:04 76° 104° (ESE) 09:45:11 437.405
TIGRISAT 31 Jul 09:39:31 09:43:28 28° 66° (ENE) 09:47:28 435.000
DELFI C3 31 Jul 09:46:15 09:48:02 13° 90° (E) 09:49:50 145.870
HO-68 31 Jul 09:53:37 10:00:45 67° 291° (WNW) 10:07:51 435.675
UNISAT 6 31 Jul 09:56:55 10:01:19 42° 69° (ENE) 10:05:46 437.425
AAUSAT CUBESAT 2 31 Jul 10:00:38 10:04:45 74° 285° (WNW) 10:08:51 437.432
YUBILEINY 31 Jul 10:14:51 10:23:40 80° 280° (W) 10:32:35 435.215
FUNcube-1 31 Jul 10:17:23 10:21:49 61° 101° (E) 10:26:07 145.935
ZACube-1 31 Jul 10:20:56 10:25:25 72° 102° (ESE) 10:29:46 437.345
CANX-2 31 Jul 10:27:36 10:30:11 16° 297° (WNW) 10:32:47 2200.000
CINEMA 3 31 Jul 10:27:59 10:31:31 20° 298° (WNW) 10:35:02 145.822/145.860
UWE-3 31 Jul 10:30:58 10:35:31 61° 287° (WNW) 10:39:54 435.000/436.395/437.385
QB50P1 31 Jul 10:34:25 10:37:14 18° 63° (ENE) 10:40:04 145.935-145.965
ANTELSAT 31 Jul 10:34:53 10:39:33 85° 255° (WSW) 10:44:19 437.575/2403.000
SO-50 31 Jul 10:35:41 10:37:12 11° 338° (NNW) 10:38:41 436.795
CUTE 1.7 + AOD 2 31 Jul 10:40:26 10:42:37 14° 299° (WNW) 10:44:46 437.475
POPSAT HIP 1 31 Jul 10:41:00 10:44:06 20° 64° (ENE) 10:47:13 437.405
Cosmos 2491 31 Jul 10:44:24 10:50:47 23° 282° (WNW) 10:57:11 435.465 / 435.565
RS-15 31 Jul 10:49:15 10:59:34 31° 351° (N) 11:10:10 29.354- 29.394
Oscar 11 31 Jul 10:53:34 10:57:46 51° 288° (WNW) 11:01:55 145.826/435.025
HUMSAT D 31 Jul 10:54:59 10:58:51 36° 97° (E) 11:02:39 437.325/437.525
Cosmos 2504 31 Jul 10:57:13 11:06:04 74° 94° (E) 11:14:46 435.465 / 435.565
M-CUBED/EXP-1 PRIME 31 Jul 10:57:14 11:01:39 38° 102° (ESE) 11:06:00 437.505
QB50P2 31 Jul 11:02:15 11:06:06 34° 68° (ENE) 11:09:58 145.880/145.840
CUBEBUG 2 31 Jul 11:03:41 11:07:20 23° 296° (WNW) 11:10:55 437.445
POLYITAN 1 31 Jul 11:04:51 11:08:43 34° 69° (ENE) 11:12:38 437.675
ESTCUBE 1 31 Jul 11:13:17 11:14:04 10° 87° (E) 11:14:51 437.505/2401.250
COMPASS 1 31 Jul 11:14:33 11:16:02 12° 300° (WNW) 11:17:31 437.405
TIGRISAT 31 Jul 11:15:43 11:20:00 36° 263° (W) 11:24:22 435.000
AUBIESAT-1 31 Jul 11:19:09 11:23:43 52° 105° (ESE) 11:28:11 437.475
DELFI C3 31 Jul 11:19:23 11:23:15 55° 287° (WNW) 11:27:06 145.870
UNISAT 6 31 Jul 11:34:28 11:38:11 23° 267° (W) 11:41:57 437.425
JAS-2 31 Jul 11:38:05 11:42:59 31° 66° (ENE) 11:47:35 435.910
BUGSAT 1 31 Jul 11:40:32 11:44:12 32° 68° (ENE) 11:47:57 437.445
NANOSAT C BR1 31 Jul 11:43:04 11:47:19 81° 75° (ENE) 11:51:36 145.865
HO-68 31 Jul 11:43:11 11:47:11 16° 312° (NW) 11:51:12 435.675
DUCHIFAT 1 31 Jul 11:45:00 11:49:14 80° 77° (ENE) 11:53:31 145.980
Oscar 19 31 Jul 11:46:11 11:46:36 10° 53° (NE) 11:47:02 437.125/150
AISAT 31 Jul 11:53:29 11:56:27 17° 91° (E) 11:59:24 437.250
FUNcube-1 31 Jul 11:54:52 11:57:33 16° 299° (WNW) 12:00:11 145.935
ZACube-1 31 Jul 11:58:47 12:01:06 14° 300° (WNW) 12:03:24 437.345
SPROUT 31 Jul 12:07:09 12:07:55 10° 88° (E) 12:08:42 437.525
QB50P1 31 Jul 12:08:29 12:12:38 51° 260° (W) 12:16:50 145.935-145.965
POPSAT HIP 1 31 Jul 12:15:31 12:19:35 44° 261° (W) 12:23:42 437.405
YUBILEINY 31 Jul 12:16:08 12:22:05 19° 303° (WNW) 12:28:05 435.215
HUMSAT D 31 Jul 12:31:02 12:34:17 22° 295° (WNW) 12:37:29 437.325/437.525
AIST 1 31 Jul 12:31:37 12:34:58 23° 88° (E) 12:38:21
M-CUBED/EXP-1 PRIME 31 Jul 12:31:56 12:35:59 29° 300° (WNW) 12:40:01 437.505
CUBEBUG 1 31 Jul 12:32:06 12:36:22 46° 99° (E) 12:40:37 437.445
QB50P2 31 Jul 12:38:27 12:41:57 24° 266° (W) 12:45:28 145.880/145.840
POLYITAN 1 31 Jul 12:41:07 12:44:35 24° 266° (W) 12:48:06 437.675
VELOX 1 31 Jul 12:43:24 12:47:46 51° 100° (E) 12:52:06 145.980
AO-85 31 Jul 12:45:15 12:50:07 36° 116° (ESE) 12:54:49 145.980
ESTCUBE 1 31 Jul 12:46:58 12:51:29 85° 283° (WNW) 12:55:59 437.505/2401.250
Cosmos 2504 31 Jul 12:52:52 13:00:15 29° 295° (WNW) 13:07:34 435.465 / 435.565
AUBIESAT-1 31 Jul 12:54:15 12:57:49 22° 302° (WNW) 13:01:21 437.475
AO-7 31 Jul 12:55:25 12:58:31 13° 36° (NE) 13:01:37 29.400- 29.500
50 SAT 31 Jul 12:58:40 13:02:17 87° 105° (ESE) 13:05:52 437.505
RS-15 31 Jul 13:05:22 13:16:35 38° 26° (NNE) 13:27:52 29.354- 29.394
DX 1 31 Jul 13:11:33 13:15:57 74° 103° (ESE) 13:20:19 434.975-435.025
UKube-1 31 Jul 13:16:08 13:20:27 65° 102° (ESE) 13:24:45 .
BUGSAT 1 31 Jul 13:16:16 13:19:38 24° 266° (W) 13:23:03 437.445
Oscar 19 31 Jul 13:19:53 13:24:56 64° 72° (ENE) 13:30:01 437.125/150
JAS-2 31 Jul 13:22:39 13:28:02 39° 262° (W) 13:33:01 435.910
DUCHIFAT 1 31 Jul 13:25:02 13:25:30 10° 272° (W) 13:25:57 145.980
ITAMSAT 1 31 Jul 13:28:26 13:31:09 14° 56° (NE) 13:33:52 435.822/435.867
AISAT 31 Jul 13:28:53 13:33:14 52° 289° (WNW) 13:37:34 437.250
Gurwin Techsat 1B 31 Jul 13:39:07 13:44:10 45° 68° (ENE) 13:49:14 435.225
SPROUT 31 Jul 13:40:05 13:44:26 80° 285° (WNW) 13:48:44 437.525
Cosmos 2499 31 Jul 13:48:23 13:52:17 14° 73° (ENE) 13:56:08 435.465 / 435.565
SO-50 31 Jul 14:00:07 14:02:42 14° 28° (NNE) 14:05:16 436.795
AIST 1 31 Jul 14:08:34 14:12:23 32° 286° (WNW) 14:16:15
CUSAT 1 31 Jul 14:08:48 14:11:52 44° 78° (ENE) 14:15:44 437.405
CUBEBUG 1 31 Jul 14:09:08 14:12:21 20° 296° (WNW) 14:15:34 437.445
ITUPSAT 1 31 Jul 14:12:03 14:13:15 11° 87° (E) 14:14:27 437.325
TISAT 1 31 Jul 14:17:51 14:22:07 63° 102° (ESE) 14:26:19 437.305
VELOX 1 31 Jul 14:20:47 14:23:52 19° 298° (WNW) 14:26:57 145.980
GONETS M04 31 Jul 14:25:14 14:32:43 34° 83° (E) 14:40:14
AO-85 31 Jul 14:25:35 14:30:37 41° 314° (NW) 14:35:22 145.980
ESTCUBE 1 31 Jul 14:26:23 14:27:33 11° 303° (WNW) 14:28:44 437.505/2401.250
AO-7 31 Jul 14:41:24 14:49:10 44° 59° (ENE) 14:56:56 29.400- 29.500
DX 1 31 Jul 14:49:23 14:51:34 14° 301° (WNW) 14:53:45 434.975-435.025
UKube-1 31 Jul 14:53:35 14:56:00 15° 300° (WNW) 14:58:25 .
SWISSCUBE 31 Jul 14:59:56 15:04:21 37° 97° (E) 15:08:44 437.505
Oscar 19 31 Jul 15:01:21 15:04:43 17° 270° (W) 15:08:06 437.125/150
ITAMSAT 1 31 Jul 15:04:38 15:09:52 88° 72° (ENE) 15:15:08 435.822/435.867
DANDE 31 Jul 15:17:38 15:20:19 86° 260° (W) 15:23:26 436.750
RS-15 31 Jul 15:18:38 15:31:05 85° 54° (NE) 15:43:23 29.354- 29.394
Gurwin Techsat 1B 31 Jul 15:19:53 15:24:18 26° 266° (W) 15:28:45 435.225
BEESAT 31 Jul 15:20:35 15:25:16 53° 100° (E) 15:29:54 436.000
Cosmos 2499 31 Jul 15:35:05 15:43:50 67° 93° (E) 15:52:14 435.465 / 435.565
SO-50 31 Jul 15:39:34 15:44:12 59° 50° (NE) 15:48:40 436.795
ITUPSAT 1 31 Jul 15:46:57 15:51:45 88° 289° (WNW) 15:56:31 437.325
KKS-1 31 Jul 15:47:03 15:48:51 12° 89° (E) 15:50:41 437.445
CUSAT 1 31 Jul 15:53:04 15:53:44 10° 267° (W) 15:54:25 437.405
TISAT 1 31 Jul 15:54:53 15:57:16 15° 299° (WNW) 15:59:39 437.305
HORYU 2 31 Jul 16:09:54 16:13:29 24° 64° (ENE) 16:17:05 437.375
AO-85 31 Jul 16:10:17 16:12:21 12° 335° (NNW) 16:14:23 145.980
STARS 31 Jul 16:12:44 16:14:01 11° 88° (E) 16:15:18 437.465
GONETS M04 31 Jul 16:20:33 16:29:04 58° 285° (WNW) 16:37:42
PHONESAT 2.4 31 Jul 16:23:01 16:25:35 24° 166° (SSE) 16:28:08 2401.200-2431.200
AO-7 31 Jul 16:33:49 16:41:51 49° 259° (W) 16:49:56 29.400- 29.500
SWISSCUBE 31 Jul 16:38:00 16:42:01 28° 295° (WNW) 16:46:00 437.505
ITAMSAT 1 31 Jul 16:47:49 16:50:02 13° 272° (W) 16:52:16 435.822/435.867
BEESAT 3 31 Jul 16:53:07 16:55:22 15° 111° (ESE) 16:57:39 437.485
MOZHAYETS 4 31 Jul 16:55:05 16:59:40 68° 101° (ESE) 17:04:11
NOAA 18 31 Jul 16:58:53 17:02:32 18° 57° (ENE) 17:06:12 137.9125
Cubesat XI-IV 31 Jul 16:59:12 17:02:33 17° 58° (ENE) 17:05:54 437.490
BEESAT 31 Jul 16:59:12 17:02:41 20° 298° (WNW) 17:06:08 436.000
BRITE-PL 31 Jul 17:01:10 17:04:06 19° 63° (ENE) 17:07:06 437.365/2234.400
BEESAT 2 31 Jul 17:10:02 17:11:37 12° 109° (ESE) 17:13:10 435.950
CUTE-I 31 Jul 17:20:05 17:24:22 25° 62° (ENE) 17:28:38 437.470
SO-50 31 Jul 17:21:00 17:24:13 19° 249° (WSW) 17:27:22 436.795
KKS-1 31 Jul 17:21:27 17:25:57 74° 286° (WNW) 17:30:25 437.445
NOAA 15 31 Jul 17:23:25 17:28:02 33° 65° (ENE) 17:32:42 137.62
ITUPSAT 1 31 Jul 17:26:51 17:28:52 13° 303° (WNW) 17:30:53 437.325
Cosmos 2499 31 Jul 17:29:54 17:37:32 32° 293° (WNW) 17:44:55 435.465 / 435.565
RS-15 31 Jul 17:32:14 17:42:15 31° 257° (WSW) 17:52:10 29.354- 29.394
GOMX 1 31 Jul 17:37:33 17:40:47 21° 63° (ENE) 17:44:09 467.674
HORYU 2 31 Jul 17:45:37 17:49:50 39° 262° (W) 17:54:05 437.375
STARS 31 Jul 17:46:28 17:50:56 80° 286° (WNW) 17:55:22 437.465
PCSat 31 Jul 17:52:15 17:56:22 22° 107° (ESE) 18:00:29 145.827
PHONESAT 2.4 31 Jul 17:58:53 18:01:40 31° 183° (S) 18:04:27 2401.200-2431.200
LilacSat-2 31 Jul 18:22:36 18:26:29 74° 74° (ENE) 18:30:23 437.200
GONETS M04 31 Jul 18:24:23 18:28:13 13° 310° (NW) 18:32:05
CUBESAT XI-V 31 Jul 18:27:54 18:32:33 79° 103° (ESE) 18:37:11 437.345
YUBILEINY 31 Jul 18:27:56 18:32:03 14° 51° (NE) 18:36:09 435.215
BEESAT 3 31 Jul 18:28:44 18:32:37 58° 309° (NW) 18:36:32 437.485
MOZHAYETS 4 31 Jul 18:33:39 18:36:18 15° 300° (WNW) 18:38:55
Cubesat XI-IV 31 Jul 18:36:34 18:41:58 81° 256° (WSW) 18:47:24 437.490
NOAA 18 31 Jul 18:36:59 18:42:32 79° 255° (WSW) 18:48:08 137.9125
HO-68 31 Jul 18:38:11 18:43:54 27° 56° (NE) 18:49:39 435.675
BRITE-PL 31 Jul 18:38:23 18:42:19 42° 262° (W) 18:46:23 437.365/2234.400
DOVE 4 31 Jul 18:41:47 18:45:57 43° 70° (ENE) 18:50:24 437.250
BEESAT 2 31 Jul 18:44:55 18:48:52 72° 307° (NW) 18:52:52 435.950
SEEDS 31 Jul 18:55:46 18:56:22 10° 59° (ENE) 18:56:58 437.485
CUTE-I 31 Jul 18:58:51 19:04:05 52° 260° (W) 19:09:20 437.470
NOAA 15 31 Jul 19:02:57 19:07:45 36° 263° (W) 19:12:35 137.62
GOMX 1 31 Jul 19:14:35 19:18:36 41° 263° (W) 19:22:51 467.674
ISS 31 Jul 19:17:56 19:19:53 15° 134° (SE) 19:21:50 145.825
AAUSAT CUBESAT 2 31 Jul 19:20:59 19:21:50 11° 59° (ENE) 19:22:42 437.432
O/OREOS (USA 219) 31 Jul 19:22:32 19:25:57 22° 102° (ESE) 19:29:23 437.305
STARS 31 Jul 19:25:55 19:26:31 10° 304° (WNW) 19:27:07 437.465
PCSat 31 Jul 19:33:58 19:39:19 61° 306° (NW) 19:44:43 145.827
PHONESAT 2.4 31 Jul 19:35:31 19:37:42 18° 200° (SSW) 19:39:52 2401.200-2431.200
AO-85 31 Jul 19:35:57 19:37:56 12° 25° (NNE) 19:39:52 145.980
CANX-2 31 Jul 19:45:09 19:49:17 50° 72° (ENE) 19:53:25 2200.000
AIST 2 31 Jul 19:50:58 19:54:30 29° 116° (ESE) 19:58:06 435.215
CINEMA 3 31 Jul 19:53:11 19:57:47 69° 74° (ENE) 20:02:38 145.822/145.860
UWE-3 31 Jul 19:54:52 19:57:57 18° 62° (ENE) 20:01:04 435.000/436.395/437.385
Cosmos 2491 31 Jul 19:57:15 20:02:46 19° 76° (ENE) 20:08:16 435.465 / 435.565
CUTE 1.7 + AOD 2 31 Jul 19:57:28 20:01:40 60° 74° (ENE) 20:05:52 437.475
CUBESAT XI-V 31 Jul 20:07:00 20:09:19 14° 300° (WNW) 20:11:37 437.345
BEESAT 3 31 Jul 20:09:49 20:11:08 11° 329° (NNW) 20:12:27 437.485
Oscar 11 31 Jul 20:15:36 20:18:31 18° 63° (ENE) 20:21:26 145.826/435.025
DOVE 4 31 Jul 20:20:33 20:23:55 21° 269° (W) 20:27:26 437.250
Cubesat XI-IV 31 Jul 20:21:24 20:22:52 11° 274° (W) 20:24:21 437.490
STRAND 1 31 Jul 20:21:50 20:26:56 66° 102° (ESE) 20:32:00 437.568
NOAA 18 31 Jul 20:22:24 20:24:04 11° 274° (W) 20:25:44 137.9125
YUBILEINY 31 Jul 20:22:25 20:31:10 59° 76° (ENE) 20:39:48 435.215
HO-68 31 Jul 20:23:49 20:31:00 73° 255° (WSW) 20:38:15 435.675
BEESAT 2 31 Jul 20:25:29 20:27:26 13° 327° (NNW) 20:29:22 435.950
CUBEBUG 2 31 Jul 20:26:07 20:30:36 47° 71° (ENE) 20:35:10 437.445
SEEDS 31 Jul 20:27:09 20:31:23 89° 63° (ENE) 20:35:37 437.485
COMPASS 1 31 Jul 20:29:22 20:33:31 67° 74° (ENE) 20:37:39 437.405
DELFI C3 31 Jul 20:35:18 20:36:33 11° 61° (ENE) 20:37:48 145.870
AUBIESAT-1 31 Jul 20:35:52 20:37:18 12° 51° (NE) 20:38:45 437.475
PRISM 31 Jul 20:43:55 20:46:06 14° 91° (E) 20:48:15 437.425
Cosmos 2504 31 Jul 20:48:31 20:55:29 30° 65° (ENE) 21:01:59 435.465 / 435.565
AAUSAT CUBESAT 2 31 Jul 20:52:30 20:56:40 86° 257° (WSW) 21:00:50 437.432
ISS 31 Jul 20:52:40 20:55:55 85° 329° (NNW) 20:59:12 145.825
O/OREOS (USA 219) 31 Jul 21:00:51 21:05:05 41° 301° (WNW) 21:09:21 437.305
FUNcube-1 31 Jul 21:14:19 21:18:49 62° 73° (ENE) 21:23:22 145.935
AO-85 31 Jul 21:15:10 21:19:33 50° 48° (NE) 21:23:34 145.980
ZACube-1 31 Jul 21:18:07 21:22:41 72° 74° (ENE) 21:27:17 437.345
PCSat 31 Jul 21:20:43 21:23:52 15° 328° (NNW) 21:27:01 145.827
CANX-2 31 Jul 21:22:44 21:25:26 16° 269° (W) 21:28:07 2200.000
AIST 2 31 Jul 21:29:08 21:32:55 34° 315° (NW) 21:36:43 435.215
UWE-3 31 Jul 21:29:22 21:33:56 60° 260° (W) 21:38:36 435.000/436.395/437.385
CINEMA 3 31 Jul 21:32:55 21:35:28 15° 273° (W) 21:38:07 145.822/145.860
CUTE 1.7 + AOD 2 31 Jul 21:35:41 21:37:53 14° 271° (W) 21:40:06 437.475
M-CUBED/EXP-1 PRIME 31 Jul 21:45:30 21:49:24 61° 67° (ENE) 21:53:41 437.505
HUMSAT D 31 Jul 21:48:01 21:51:55 34° 69° (ENE) 21:55:49 437.325/437.525
Cosmos 2491 31 Jul 21:49:33 21:58:15 86° 96° (E) 22:07:01 435.465 / 435.565
Oscar 11 31 Jul 21:50:02 21:54:17 51° 260° (W) 21:58:32 145.826/435.025
STRAND 1 31 Jul 22:02:07 22:05:37 19° 300° (WNW) 22:09:06 437.568
CUBEBUG 2 31 Jul 22:03:56 22:07:27 21° 269° (W) 22:11:01 437.445
DELFI C3 31 Jul 22:06:52 22:10:50 74° 258° (WSW) 22:14:49 145.870
AUBIESAT-1 31 Jul 22:06:57 22:10:57 86° 74° (ENE) 22:15:18 437.475
COMPASS 1 31 Jul 22:07:56 22:09:31 12° 271° (W) 22:11:05 437.405
ESTCUBE 1 31 Jul 22:14:13 22:16:35 14° 60° (ENE) 22:18:57 437.505/2401.250
HO-68 31 Jul 22:16:44 22:19:57 13° 275° (W) 22:23:11 435.675
PRISM 31 Jul 22:17:43 22:21:44 55° 288° (WNW) 22:25:46 437.425
YUBILEINY 31 Jul 22:19:53 22:27:29 34° 277° (W) 22:35:03 435.215
ANTELSAT 31 Jul 22:25:35 22:28:43 18° 91° (E) 22:31:47 437.575/2403.000
ISS 31 Jul 22:29:45 22:32:40 29° 351° (N) 22:35:35 145.825
DX 1 31 Jul 22:37:09 22:37:46 10° 57° (ENE) 22:38:23 434.975-435.025
Cosmos 2504 31 Jul 22:41:33 22:49:27 61° 268° (W) 22:56:46 435.465 / 435.565
FUNcube-1 31 Jul 22:52:49 22:55:28 15° 271° (W) 22:58:09 145.935
AISAT 31 Jul 22:53:00 22:56:16 21° 63° (ENE) 22:59:33 437.250
AO-85 31 Jul 22:56:30 22:59:33 19° 249° (WSW) 23:02:27 145.980
ZACube-1 31 Jul 22:57:19 22:59:29 13° 272° (W) 23:01:38 437.345
SPROUT 31 Jul 23:02:41 23:04:20 12° 59° (ENE) 23:05:59 437.525
TIGRISAT 31 Jul 23:04:49 23:09:12 41° 98° (E) 23:13:27 435.000
M-CUBED/EXP-1 PRIME 31 Jul 23:22:27 23:24:26 13° 267° (W) 23:26:30 437.505
UNISAT 6 31 Jul 23:22:51 23:27:28 67° 101° (ESE) 23:31:57 437.425
HUMSAT D 31 Jul 23:24:05 23:27:36 24° 266° (W) 23:31:07 437.325/437.525
NANOSAT C BR1 31 Jul 23:27:35 23:28:55 11° 88° (E) 23:30:14 145.865
DUCHIFAT 1 31 Jul 23:29:24 23:30:33 11° 88° (E) 23:31:41 145.980
CUBEBUG 1 31 Jul 23:29:59 23:34:08 49° 72° (ENE) 23:38:21 437.445
50 SAT 31 Jul 23:37:57 23:41:31 51° 73° (ENE) 23:45:04 437.505
VELOX 1 31 Jul 23:42:35 23:46:53 59° 73° (ENE) 23:51:15 145.980
ESTCUBE 1 31 Jul 23:48:21 23:52:50 72° 258° (WSW) 23:57:20 437.505/2401.250
QB50P1 31 Jul 23:51:29 23:54:50 22° 93° (E) 23:58:08 145.935-145.965
